User: anonymous   Login
Location: Unspecified
(0.0000°N, 0.0000°E)
Time: 04:06:32
(UTC+00:00)
Language:

USA 237 - Orbit

View from above orbital plane
View from above orbital plane
View from above satellite
View from above satellite

Ground track
Ground track

The orbit data is extracted from the following two-line orbital elements,

1 38528U 12034A   18010.60860594 0.00000000  00000-0  00000-0 0    07
2 38528   0.9797  21.7358 0039926 341.8893  17.9702  1.00270000    07
Epoch (UTC): 10 January 2018 14:36:23
Eccentricity: 0.0039926
inclination: 0.9797°
perigee height: 35618 km
apogee height: 35955 km
right ascension of ascending node: 21.7358°
argument of perigee: 341.8893°
revolutions per day: 1.00270000
mean anomaly at epoch: 17.9702°
orbit number at epoch: 0

The dashed part of the orbit path shows where the satellite is in the earth's shadow,  

DLR